Tracking 23764 objects as of 17-Oct-2021
HD Live streaming from Space Station
objects crossing your sky now

SSU 1

Track SSU 1 now!
10-day predictions
SSU 1 is classified as:


NORAD ID: 8835
Int'l Code: 1976-038C
Perigee: 553.1 km
Apogee: 1,381.6 km
Inclination: 63.3 °
Period: 104.3 minutes
Semi major axis: 7338 km
RCS: Unknown
Launch date: April 30, 1976
Source: United States (US)
Launch site: AIR FORCE WESTERN TEST RANGE (AFWTR)
aabbcc
Your satellite tracking list
Your tracking list is empty




NASA's NSSDC Master Catalog

Two Line Element Set (TLE):
1 08835U 76038C   21289.22087323 -.00000029  00000-0  29242-4 0  9992
2 08835  63.3374 274.8422 0564486 157.7724 204.8877 13.81046703123170
Source of the keplerian elements: McCants